Location: Campillo
(40.8621°N, 4.2488°W)
Time: 13:04:33
(UTC+00:00)

BREEZE-M DEB (TANK) - Pass Details

Date: 11 May 2021
Orbit: 277 x 16789 km, 49.5° (Epoch: 13 June)

Event Time Altitude Azimuth Distance (km) Brightness Sun altitude
Rises 20:17:58 0° 283° (WNW) 3,170 7.7 -9.7°
Reaches altitude 10° 20:21:46 10° 311° (NW) 1,426 6.0 -10.3°
Maximum altitude 20:23:14 13° 346° (NNW) 1,051 4.5 -10.5°
Drops below altitude 10° 20:24:25 10° 22° (NNE) 1,129 4.1 -10.7°
Sets 20:26:40 0° 57° (ENE) 1,972 5.0 -11.0°
Enters shadow 20:26:40 - 57° (ENE) 1,978 5.0 -11.0°
